WZZ105 ENBR-EDDH

Flight info

Callsign WZZ105
Flight time N/A
Altitude 37000
Route TUXIL DCT ZOL DCT RAMUD DCT ALASA M852 EKERN T905 BOGMU BOGMU3N
Aircraft A21N/M-SDE3FGHIRWY/LB1

Departure

Time N/A
Airport Bergen Airport, Flesland (ENBR)

Arrival

Time 2026-05-06 19:12
Airport Hamburg Helmut Schmidt Airport (EDDH)
Time Latitude Longitude Altitude Speed Heading
2026-05-06 18:55 54.04382 9.61080 10911 ft 312 kts 198°
2026-05-06 18:55 54.02312 9.60008 10912 ft 313 kts 198°
2026-05-06 18:55 54.00301 9.58966 10906 ft 313 kts 197°
2026-05-06 18:56 53.98237 9.57897 10910 ft 313 kts 197°
2026-05-06 18:56 53.96143 9.56816 10905 ft 313 kts 197°
2026-05-06 18:56 53.94068 9.55745 10899 ft 313 kts 197°
2026-05-06 18:56 53.92013 9.54687 10899 ft 313 kts 198°
2026-05-06 18:57 53.89957 9.53627 10900 ft 313 kts 198°
2026-05-06 18:57 53.87919 9.52579 10900 ft 312 kts 198°
2026-05-06 18:57 53.85864 9.51521 10673 ft 312 kts 198°
2026-05-06 18:57 53.83797 9.50459 10397 ft 306 kts 197°
2026-05-06 18:58 53.81807 9.49437 10097 ft 301 kts 197°
2026-05-06 18:58 53.79850 9.48434 9834 ft 294 kts 197°
2026-05-06 18:58 53.77985 9.47479 9684 ft 278 kts 197°
2026-05-06 18:58 53.76180 9.46555 9553 ft 270 kts 197°
2026-05-06 18:59 53.74404 9.45649 9364 ft 263 kts 197°
2026-05-06 18:59 53.72674 9.44764 9153 ft 256 kts 197°
2026-05-06 18:59 53.71011 9.43918 9005 ft 254 kts 195°
2026-05-06 18:59 53.69285 9.43497 8874 ft 254 kts 178°
2026-05-06 19:00 53.67612 9.43867 8756 ft 252 kts 167°
2026-05-06 19:00 53.65948 9.44535 8633 ft 251 kts 165°
2026-05-06 19:00 53.64283 9.45246 8507 ft 251 kts 165°
2026-05-06 19:00 53.62605 9.45951 8381 ft 251 kts 165°
2026-05-06 19:01 53.60968 9.46622 8260 ft 251 kts 165°
2026-05-06 19:01 53.59383 9.47260 8142 ft 251 kts 165°
2026-05-06 19:01 53.57699 9.47964 8008 ft 250 kts 159°
2026-05-06 19:01 53.56202 9.49161 7887 ft 247 kts 147°
2026-05-06 19:02 53.54811 9.50602 7752 ft 244 kts 145°
2026-05-06 19:02 53.53436 9.52092 7486 ft 240 kts 144°
2026-05-06 19:02 53.52113 9.53529 7261 ft 228 kts 144°
2026-05-06 19:02 53.50861 9.54877 7006 ft 218 kts 144°
2026-05-06 19:03 53.49658 9.56158 6685 ft 211 kts 144°
2026-05-06 19:03 53.48460 9.57424 6109 ft 216 kts 144°
2026-05-06 19:03 53.47360 9.58938 5544 ft 211 kts 123°
2026-05-06 19:03 53.46927 9.61135 5086 ft 196 kts 87°
2026-05-06 19:04 53.47294 9.63094 4717 ft 185 kts 60°
2026-05-06 19:04 53.47965 9.64837 4264 ft 183 kts 55°
2026-05-06 19:04 53.48621 9.66407 4066 ft 180 kts 54°
2026-05-06 19:04 53.49314 9.68044 3972 ft 166 kts 54°
2026-05-06 19:05 53.49824 9.69404 3826 ft 158 kts 61°
2026-05-06 19:05 53.50380 9.72686 3633 ft 130 kts 62°
2026-05-06 19:05 53.50852 9.73990 3469 ft 128 kts 55°
2026-05-06 19:06 53.51369 9.75135 3301 ft 128 kts 51°
2026-05-06 19:06 53.51922 9.76266 3129 ft 128 kts 50°
2026-05-06 19:06 53.52457 9.77350 2957 ft 125 kts 50°
2026-05-06 19:06 53.52996 9.78441 2787 ft 123 kts 51°
2026-05-06 19:07 53.53511 9.79486 2631 ft 123 kts 51°
2026-05-06 19:07 53.53851 9.80176 2529 ft 122 kts 51°
2026-05-06 19:07 53.54544 9.81585 2322 ft 122 kts 51°
2026-05-06 19:07 53.55067 9.82648 2168 ft 121 kts 51°
2026-05-06 19:08 53.55576 9.83683 2015 ft 120 kts 51°
2026-05-06 19:08 53.56022 9.84591 1882 ft 120 kts 51°
2026-05-06 19:09 53.56648 9.85864 1691 ft 119 kts 51°
2026-05-06 19:09 53.57140 9.86863 1544 ft 120 kts 51°
2026-05-06 19:09 53.57635 9.87868 1395 ft 121 kts 50°
2026-05-06 19:10 53.58000 9.88609 1284 ft 121 kts 50°
2026-05-06 19:10 53.58663 9.89956 1078 ft 123 kts 50°
2026-05-06 19:10 53.59182 9.91000 927 ft 124 kts 49°
2026-05-06 19:10 53.59660 9.91982 825 ft 124 kts 50°
2026-05-06 19:11 53.60191 9.93057 653 ft 125 kts 52°
2026-05-06 19:11 53.60659 9.94019 520 ft 126 kts 51°
2026-05-06 19:11 53.61202 9.95121 318 ft 128 kts 49°
2026-05-06 19:12 53.63052 9.98875 36 ft 26 kts 55°
2026-05-06 19:12 53.63083 9.98982 35 ft 3 kts 71°
2026-05-06 19:13 53.63091 9.99034 35 ft 5 kts 82°
2026-05-06 19:13 53.63092 9.99096 35 ft 6 kts 94°
2026-05-06 19:13 53.63089 9.99181 34 ft 9 kts 93°
2026-05-06 19:13 53.63086 9.99306 32 ft 14 kts 88°
2026-05-06 19:14 53.63087 9.99336 31 ft 0 kts 81°
2026-05-06 19:15 53.63088 9.99350 31 ft 2 kts 81°
2026-05-06 19:15 53.63099 9.99395 31 ft 6 kts 66°
2026-05-06 19:15 53.63127 9.99472 31 ft 10 kts 57°
2026-05-06 19:15 53.63173 9.99580 31 ft 14 kts 49°
2026-05-06 19:16 53.63200 9.99633 31 ft 0 kts 49°
2026-05-06 19:17 53.63204 9.99640 31 ft 3 kts 47°
2026-05-06 19:17 53.63242 9.99705 31 ft 15 kts 44°
2026-05-06 19:17 53.63325 9.99853 31 ft 19 kts 48°
2026-05-06 19:17 53.63398 10.00006 34 ft 13 kts 51°
2026-05-06 19:18 53.63427 10.00083 38 ft 6 kts 80°
2026-05-06 19:18 53.63413 10.00143 39 ft 7 kts 144°
2026-05-06 19:18 53.63359 10.00163 38 ft 10 kts 175°
2026-05-06 19:18 53.63280 10.00174 37 ft 7 kts 175°
2026-05-06 19:19 53.63245 10.00200 38 ft 4 kts 122°
2026-05-06 19:19 53.63241 10.00236 39 ft 3 kts 84°
2026-05-06 19:19 53.63244 10.00277 40 ft 4 kts 85°
2026-05-06 19:19 53.63245 10.00323 41 ft 4 kts 86°
2026-05-06 19:20 53.63246 10.00342 42 ft 0 kts 86°